International Virtual Aviation Organisation

Russian Federation and Kazakhstan MCD

 

Карточка аэропорта UATE

Внимание!
Информация на этой странице в стадии наполнения.
Если вы не увидели какой-то информации, или заметили неточность - пожалуйста сообщите нам!
Спасибо!
Команда RU-STAFF
Название аэропортаАктау
Название аэропорта (англ.)Aktau
Превышение75 ft. (22.9 m.)
Координаты43°51.138', 51°5.3639999999999'
Высота перехода2050
Эшелон переходаFL40
Коды ответчика3460-3467, 3550-3557
Зона ОрВДАктобе РПИ (UATT)
Данные METARUATE 051830Z 01001MPS CAVOK 09/05 Q1021 R30/0///70 NOSIG RMK QFE764/1019
Проноз погоды (TAF)UATE 051704Z 0518/0618 VRB02MPS 9999 SCT011 SCT033CB TX10/0609Z TN05/0602Z TEMPO 0520/0603 1000 BR BKN002 BECMG 0603/0605 30008MPS TEMPO 0603/0609 3100 -SHRA BKN005 BKN025CB BECMG 0609/0611 28011G17MPS BKN033CB
NOTAMshow/hide NOTAM
AWOS   TABLE

Информация о ВПП

ВПП Длина ВПП (м.) Покрытие Курс ВПП Частота ILS
123052Асфальтобетон122109.5
303052Асфальт302111.1

Диспетчерские позиции

Позывной Наименование органа УВД Частота
UATE_APPАктау Поход134.3
UATE_TWRАктау Вышка120.7



Спутниковое изображение